Location: Table Mountain
(47.2500°N, 120.5778°W)
Time: 10:41:09
(UTC-08:00)

UKube-1 - Visible Passes

Search period start: 21 January 2019 00:00
Search period end: 31 January 2019 00:00
Orbit: 613 x 620 km, 98.4° (Epoch: 20 January)

Date Brightness Start Highest point End Pass type
(mag) Time Alt. Az. Time Alt. Az. Time Alt. Az.
21 Jan ? 17:21:02 10° NNW 17:24:18 21° WNW 17:27:32 10° WSW visible
22 Jan ? 17:37:50 10° NNW 17:40:23 16° WNW 17:42:56 10° W visible
23 Jan ? 17:55:05 10° NW 17:56:26 11° NW 17:57:48 10° WNW visible
27 Jan ? 17:22:37 10° NNW 17:25:53 21° WNW 17:29:08 10° WSW visible
28 Jan ? 17:39:25 10° NNW 17:41:58 16° WNW 17:44:32 10° W visible
29 Jan ? 17:56:40 10° NW 17:58:02 11° WNW 17:59:24 10° WNW visible
